Weather History for Parkersburg, WV

Change the Weather History Date:

Wednesday, May 8, 2013

  Actual Average Record
Temperature  
Mean Temperature 63 °F 60 °F  
Max Temperature 72 °F 72 °F 91 °F (1940)
Min Temperature 53 °F 48 °F 33 °F (1947)
Degree Days  
Heating Degree Days 2 6  
Month to date heating degree days 15 52  
Since 1 July heating degree days 4885 4858  
Growing Degree Days 12 (Base 50)    
Moisture  
Dew Point 53 °F    
Average Humidity 72    
Maximum Humidity 100    
Minimum Humidity 44    
Precipitation  
Precipitation 0.09 in 0.13 in 2.28 in (2012)
Month to date precipitation 0.60 1.03  
Year to date precipitation 10.43 13.68  
Snow  
Snow 0.00 in - - ()
Month to date snowfall  
Since 1 July snowfall  
Since 1 September snowfall  
Snow Depth -    
Sea Level Pressure  
Sea Level Pressure 29.95 in    
Wind  
Wind Speed 3 mph (NE)    
Max Wind Speed 10 mph    
Max Gust Speed 13 mph    
Visibility 7 miles    
Events Fog , Rain    
T = Trace of Precipitation, MM = Missing Value Source: NWS Daily Summary

Daily Weather History Graph

Daily Weather History Graph

Search for Another Location

Airport:

Trip Planner

Search our weather history database for the weather conditions in past years. The results will help you decide how hot, cold, wet, or windy it might be!

Date:

Astronomy

May. 08, 2013 Rise Set
Actual Time 6:18 AM EDT 8:26 PM EDT
Civil Twilight 5:49 AM EDT 8:55 PM EDT
Nautical Twilight 5:12 AM EDT 9:32 PM EDT
Astronomical Twilight 4:33 AM EDT 10:12 PM EDT
Moon 5:25 AM EDT (5/8) 7:23 PM EDT (5/8)
Length of Visible Light 15h 06m
Length of Day
14h 07m
Waning Crescent, 2% of the Moon is Illuminated
May 8
Waning Crescent
May 9
New
May 18
First Quarter
May 25
Full
May 31
Last Quarter

Hourly Weather History & Observations

Time (EDT) Temp. Dew Point Humidity Pressure Visibility Wind Dir Wind Speed Gust Speed Precip Events Conditions
12:02 AM 53.6 °F 53.6 °F 100% 29.96 in 0.8 mi Calm Calm - N/A   Overcast
12:14 AM 53.6 °F 53.6 °F 100% 29.95 in 0.2 mi Calm Calm - N/A Fog Fog
12:17 AM 53.6 °F 53.6 °F 100% 29.95 in 0.5 mi Calm Calm - N/A Fog Fog
12:53 AM 54.0 °F 54.0 °F 100% 29.94 in 1.0 mi Calm Calm - N/A   Mostly Cloudy
1:06 AM 53.6 °F 53.6 °F 100% 29.94 in 0.8 mi Calm Calm - N/A   Overcast
1:15 AM 53.6 °F 53.6 °F 100% 29.94 in 2.5 mi Calm Calm - N/A   Overcast
1:22 AM 53.6 °F 53.6 °F 100% 29.94 in 4.0 mi Calm Calm - N/A   Overcast
1:35 AM 53.6 °F 53.6 °F 100% 29.93 in 5.0 mi NW 3.5 mph - N/A   Overcast
1:53 AM 55.0 °F 54.0 °F 96% 29.92 in 8.0 mi Calm Calm - N/A   Overcast
2:04 AM 53.6 °F 53.6 °F 100% 29.92 in 5.0 mi Calm Calm - N/A   Overcast
2:53 AM 55.9 °F 55.0 °F 97% 29.90 in 5.0 mi Calm Calm - 0.01 in Rain Light Rain
3:53 AM 55.9 °F 55.0 °F 97% 29.89 in 7.0 mi NNE 4.6 mph - 0.02 in Rain Light Rain
4:22 AM 57.2 °F 55.4 °F 94% 29.91 in 8.0 mi NE 4.6 mph - 0.01 in Rain Light Rain
4:48 AM 57.2 °F 55.4 °F 94% 29.91 in 9.0 mi NE 6.9 mph - 0.01 in   Overcast
4:53 AM 57.0 °F 55.9 °F 96% 29.90 in 9.0 mi NE 8.1 mph - 0.01 in   Overcast
5:27 AM 57.2 °F 55.4 °F 94% 29.91 in 10.0 mi East 5.8 mph - 0.00 in Rain Light Rain
5:37 AM 57.2 °F 55.4 °F 94% 29.91 in 10.0 mi East 4.6 mph - 0.00 in Rain Light Rain
5:53 AM 55.9 °F 54.0 °F 93% 29.91 in 7.0 mi East 5.8 mph - 0.01 in Rain Light Rain
6:34 AM 55.4 °F 53.6 °F 94% 29.92 in 10.0 mi Calm Calm - 0.01 in Rain Light Rain
6:53 AM 55.9 °F 54.0 °F 93% 29.94 in 4.0 mi East 3.5 mph - 0.01 in Rain Light Rain
7:26 AM 55.4 °F 53.6 °F 94% 29.94 in 10.0 mi Calm Calm - 0.01 in   Overcast
7:53 AM 55.9 °F 54.0 °F 93% 29.95 in 10.0 mi Calm Calm - 0.01 in   Overcast
8:05 AM 55.4 °F 55.4 °F 100% 29.96 in 2.0 mi Calm Calm - N/A   Overcast
8:53 AM 57.0 °F 55.0 °F 93% 29.96 in 6.0 mi North 6.9 mph - N/A   Overcast
9:53 AM 57.0 °F 55.0 °F 93% 29.99 in 6.0 mi East 6.9 mph - 0.00 in Rain Light Rain
10:53 AM 60.1 °F 54.0 °F 80% 29.99 in 10.0 mi ENE 6.9 mph - 0.00 in   Overcast
11:01 AM 60.8 °F 53.6 °F 77% 30.00 in 10.0 mi SE 5.8 mph - N/A   Overcast
11:53 AM 63.0 °F 53.1 °F 70% 30.00 in 10.0 mi Variable 6.9 mph - N/A   Mostly Cloudy
12:53 PM 64.9 °F 52.0 °F 63% 29.99 in 10.0 mi ENE 4.6 mph - N/A   Mostly Cloudy
1:00 PM 66.2 °F 51.8 °F 60% 29.99 in 10.0 mi Variable 4.6 mph - N/A   Mostly Cloudy
1:21 PM 64.4 °F 50.0 °F 59% 29.98 in 0.8 mi Calm Calm - N/A   Haze
1:24 PM 66.2 °F 50.0 °F 56% 29.98 in 4.0 mi Variable 5.8 mph - N/A   Haze
1:53 PM 66.9 °F 48.9 °F 52% 29.97 in 10.0 mi Calm Calm - N/A   Mostly Cloudy
2:53 PM 66.9 °F 48.9 °F 52% 29.97 in 10.0 mi East 5.8 mph - N/A   Overcast
3:53 PM 69.1 °F 48.9 °F 49% 29.96 in 10.0 mi Variable 3.5 mph - N/A   Mostly Cloudy
4:53 PM 70.0 °F 48.9 °F 47% 29.95 in 10.0 mi Calm Calm - N/A   Clear
5:53 PM 72.0 °F 48.9 °F 44% 29.94 in 10.0 mi West 3.5 mph - N/A   Clear
6:53 PM 72.0 °F 50.0 °F 46% 29.94 in 10.0 mi NNW 4.6 mph - N/A   Clear
7:53 PM 66.9 °F 48.9 °F 52% 29.95 in 10.0 mi WSW 3.5 mph - N/A   Partly Cloudy
8:53 PM 62.1 °F 52.0 °F 70% 29.97 in 10.0 mi West 3.5 mph - N/A   Overcast
9:53 PM 64.0 °F 51.1 °F 63% 29.99 in 10.0 mi WSW 3.5 mph - N/A   Overcast
10:53 PM 60.1 °F 54.0 °F 80% 30.00 in 10.0 mi Calm Calm - 0.02 in Rain Light Rain
11:53 PM 59.0 °F 57.0 °F 93% 29.99 in 10.0 mi Calm Calm - 0.00 in   Overcast